Lafayette, LA

4:56 PM CDT on August 17, 2017 (GMT -0500)
Lafayette Regional

Weather History for KLFT - December, 2011

Change the Weather History Date:

Friday, December 16, 2011

  Actual Average Record
Temperature  
Mean Temperature 60 °F 54 °F  
Max Temperature 70 °F 64 °F 83 °F (1971)
Min Temperature 50 °F 44 °F 12 °F (1901)
Degree Days  
Heating Degree Days 5 12  
Month to date heating degree days 183 166  
Since 1 July heating degree days 412 365  
Growing Degree Days 10 (Base 50)    
Moisture  
Dew Point 59 °F    
Average Humidity 95    
Maximum Humidity 100    
Minimum Humidity 89    
Precipitation  
Precipitation 0.14 in 0.19 in 3.20 in (1922)
Month to date precipitation 0.59 2.79  
Year to date precipitation 34.56 57.71  
Snow  
Snow 0.00 in 0.00 in 0.00 in ()
Month to date snowfall 0.0 0.0  
Since 1 July snowfall 0.0 0.0  
Snow Depth 0.00 in    
Sea Level Pressure  
Sea Level Pressure 30.19 in    
Wind  
Wind Speed 8 mph (NNE)    
Max Wind Speed 18 mph    
Max Gust Speed 23 mph    
Visibility 4 miles    
Events Rain    
T = Trace of Precipitation, MM = Missing Value Source: NWS Daily Summary

Daily Weather History Graph

Daily Weather History Graph

Search for Another Location

Airport or City:

Trip Planner

Search our weather history database for the weather conditions in past years. The results will help you decide how hot, cold, wet, or windy it might be!

Date:

Astronomy

Dec. 16, 2011 Rise Set
Actual Time 6:57 AM CST 5:09 PM CST
Civil Twilight 6:30 AM CST 5:36 PM CST
Nautical Twilight 6:00 AM CST 6:06 PM CST
Astronomical Twilight 5:31 AM CST 6:35 PM CST
Moon 11:18 PM CST (12/16) 11:05 AM CST (12/16)
Length of Visible Light 11h 05m
Length of Day
10h 12m
Waning Gibbous, 64% of the Moon is Illuminated
Dec 16
Waning Gibbous
Dec 17
Last Quarter
Dec 24
New
Jan 1
First Quarter
Jan 9
Full

Hourly Weather History & Observations

Time (CST) Temp. Dew Point Humidity Pressure Visibility Wind Dir Wind Speed Gust Speed Precip Events Conditions
12:53 AM 66.0 °F 64.0 °F 93% 30.10 in 10.0 mi South 4.6 mph - N/A   Clear
1:53 AM 66.0 °F 64.0 °F 93% 30.09 in 10.0 mi South 4.6 mph - N/A   Clear
2:32 AM 64.4 °F 64.4 °F 100% 30.10 in 8.0 mi South 3.5 mph - N/A   Scattered Clouds
2:42 AM 66.2 °F 64.4 °F 94% 30.11 in 7.0 mi South 4.6 mph - N/A   Mostly Cloudy
2:53 AM 66.0 °F 64.0 °F 93% 30.11 in 7.0 mi South 3.5 mph - N/A   Overcast
3:17 AM 66.2 °F 64.4 °F 94% 30.11 in 2.5 mi South 4.6 mph - N/A   Overcast
3:38 AM 66.2 °F 64.4 °F 94% 30.10 in 1.5 mi SSE 4.6 mph - N/A   Overcast
3:53 AM 66.2 °F 64.4 °F 94% 30.10 in 1.2 mi SSE 5.8 mph - N/A   Overcast
4:33 AM 66.2 °F 64.4 °F 94% 30.10 in 0.8 mi South 5.8 mph - N/A   Overcast
4:41 AM 66.2 °F 64.4 °F 94% 30.10 in 0.8 mi South 4.6 mph - N/A   Mist
4:53 AM 66.0 °F 64.9 °F 96% 30.10 in 1.0 mi SSE 4.6 mph - N/A   Mist
5:04 AM 66.2 °F 64.4 °F 94% 30.10 in 0.8 mi South 3.5 mph - N/A   Mist
5:53 AM 66.2 °F 64.4 °F 94% 30.10 in 1.0 mi South 5.8 mph - N/A   Mist
6:06 AM 66.2 °F 64.4 °F 94% 30.11 in 0.8 mi South 3.5 mph - N/A   Mist
6:53 AM 66.0 °F 64.9 °F 96% 30.13 in 0.8 mi South 3.5 mph - N/A   Overcast
7:53 AM 66.9 °F 66.0 °F 97% 30.15 in 0.8 mi Calm Calm - N/A   Overcast
8:41 AM 66.2 °F 66.2 °F 100% 30.17 in 0.8 mi Calm Calm - N/A   Overcast
8:53 AM 66.9 °F 66.9 °F 100% 30.18 in 1.0 mi Calm Calm - N/A   Overcast
9:14 AM 68.0 °F 66.2 °F 94% 30.18 in 1.0 mi Calm Calm - N/A   Overcast
9:21 AM 68.0 °F 66.2 °F 94% 30.18 in 2.0 mi Calm Calm - N/A   Overcast
9:53 AM 70.0 °F 68.0 °F 93% 30.19 in 6.0 mi South 3.5 mph - 0.00 in   Mostly Cloudy
10:31 AM 62.6 °F 60.8 °F 94% 30.21 in 2.5 mi North 11.5 mph - 0.06 in Rain Rain
10:39 AM 60.8 °F 59.0 °F 94% 30.21 in 1.8 mi North 11.5 mph - 0.09 in Rain Light Rain
10:42 AM 60.8 °F 59.0 °F 94% 30.21 in 3.0 mi North 11.5 mph - 0.09 in Rain Light Rain
10:53 AM 61.0 °F 57.9 °F 90% 30.21 in 10.0 mi North 9.2 mph - 0.09 in   Overcast
11:53 AM 61.0 °F 57.9 °F 90% 30.20 in 10.0 mi North 10.4 mph - N/A   Overcast
12:13 PM 62.6 °F 59.0 °F 88% 30.19 in 10.0 mi North 9.2 mph - N/A   Overcast
12:42 PM 60.8 °F 57.2 °F 88% 30.19 in 2.5 mi NNE 10.4 mph - 0.01 in Rain Light Rain
12:53 PM 61.0 °F 57.9 °F 90% 30.19 in 2.0 mi NNE 9.2 mph - 0.01 in Rain Light Rain
1:00 PM 60.8 °F 57.2 °F 88% 30.18 in 2.0 mi NNE 8.1 mph - 0.00 in Rain Light Rain
1:10 PM 60.8 °F 57.2 °F 88% 30.18 in 2.0 mi NNE 8.1 mph - 0.01 in Rain Light Rain
1:53 PM 60.1 °F 57.9 °F 93% 30.18 in 2.0 mi North 9.2 mph - 0.03 in Rain Light Rain
2:53 PM 59.0 °F 57.0 °F 93% 30.19 in 2.0 mi North 8.1 mph - 0.00 in   Overcast
3:53 PM 57.9 °F 55.9 °F 93% 30.19 in 2.0 mi NNE 11.5 mph - 0.01 in   Overcast
4:53 PM 55.9 °F 54.0 °F 93% 30.21 in 2.0 mi North 16.1 mph - N/A   Overcast
5:04 PM 55.4 °F 53.6 °F 94% 30.22 in 2.0 mi NNE 13.8 mph 23.0 mph N/A   Overcast
5:53 PM 54.0 °F 53.1 °F 97% 30.24 in 2.0 mi North 15.0 mph - N/A   Overcast
6:11 PM 53.6 °F 51.8 °F 94% 30.24 in 2.0 mi NNE 16.1 mph - N/A   Overcast
6:53 PM 52.0 °F 51.1 °F 97% 30.27 in 2.0 mi North 12.7 mph 20.7 mph N/A   Overcast
7:53 PM 51.1 °F 48.9 °F 92% 30.29 in 2.0 mi North 12.7 mph - 0.01 in   Overcast
8:53 PM 51.1 °F 48.9 °F 92% 30.30 in 2.0 mi North 9.2 mph - N/A   Overcast
9:15 PM 51.8 °F 48.2 °F 88% 30.29 in 2.0 mi NNE 8.1 mph - N/A   Overcast
9:22 PM 51.8 °F 48.2 °F 88% 30.30 in 2.0 mi NNE 11.5 mph - N/A   Overcast
9:53 PM 51.1 °F 48.9 °F 92% 30.30 in 2.0 mi NNE 10.4 mph - N/A   Overcast
10:09 PM 51.8 °F 48.2 °F 88% 30.31 in 10.0 mi NNE 11.5 mph - N/A   Overcast
10:41 PM 51.8 °F 48.2 °F 88% 30.31 in 10.0 mi NNE 12.7 mph - N/A   Overcast
10:53 PM 51.1 °F 48.0 °F 89% 30.32 in 10.0 mi North 12.7 mph - N/A   Overcast
11:07 PM 51.8 °F 48.2 °F 88% 30.32 in 10.0 mi NNE 10.4 mph - N/A   Overcast
11:53 PM 51.8 °F 48.2 °F 88% 30.32 in 7.0 mi North 8.1 mph - N/A   Overcast